Flag for France Weather past 2 weeks in Lille, France

36 °F


Feels Like: 31 °F
Forecast: 37 / 49 °F
Wind: 6 mph from Northwest

Location: Lille Airport

Current Time: Oct 14, 2015 at 2:14:19 AM

Latest Report: Oct 14, 2015 at 1:30 AM

Visibility: 4 mi

Pressure: 30.18 "Hg

Humidity: 87%

Dew point: 32 °F

Location of LilleLocation

Historic Weather in Lille — Graph


Lille temperature yesterday

Maximum temperature yesterday: 50 °F (at 3:00 PM)
Minimum temperature yesterday: 37 °F (at 11:30 PM)
Average temperature yesterday: 45 °F

Past Weeks' High & Low Weather Summary

High70 °F (Oct 6, 4:30 PM)100% (Oct 3, 7:00 AM)30.54 "Hg (Oct 3, 7:00 AM)
Low37 °F (Oct 13, 11:30 PM)40% (Sep 30, 4:00 PM)29.50 "Hg (Oct 6, 12:00 PM)
Average53 °F78%30.07 "Hg
* Reported Sep 29 1:00 AM — Oct 14 1:00 AM, Lille, Weather by CustomWeather, © 2015

Note: Actual official high and low records may vary slightly from our data, if they occured in-between our weather recording intervals... More about our weather records


Lille weather history for previous 24 hours

Time TempWeatherWind HumidityBarometerVisibility
1:00 AM
Wed, Oct 14
37 °FClear.6 mph81%30.18 "Hg4 mi
11:30 PM
Tue, Oct 13
37 °FClear.5 mph81%30.18 "Hg4 mi
11:00 PM39 °FPassing clouds.6 mph75%30.18 "Hg5 mi
10:30 PM41 °FOvercast.10 mph70%30.18 "Hg6 mi
10:00 PM41 °FMostly cloudy.15 mph70%30.18 "HgN/A
9:30 PM41 °FOvercast.17 mph70%30.15 "HgN/A
9:00 PM43 °FOvercast.17 mph66%30.15 "HgN/A
8:30 PM43 °FOvercast.16 mph71%30.15 "HgN/A
8:00 PM43 °FOvercast.10 mph76%30.15 "Hg6 mi
7:30 PM43 °FOvercast.12 mph76%30.15 "Hg6 mi
7:00 PM45 °FOvercast.13 mph71%30.12 "HgN/A
6:30 PM45 °FMostly cloudy.17 mph71%30.12 "Hg5 mi
6:00 PM46 °FOvercast.14 mph66%30.12 "HgN/A
5:30 PM46 °FOvercast.15 mph66%30.09 "HgN/A
5:00 PM48 °FPartly sunny.14 mph62%30.09 "HgN/A
4:30 PM48 °FOvercast.15 mph62%30.09 "Hg6 mi
4:00 PM48 °FPartly sunny.16 mph66%30.09 "HgN/A
3:30 PM50 °FPartly sunny.15 mph62%30.09 "Hg6 mi
3:00 PM50 °FPartly sunny.15 mph62%30.09 "Hg5 mi
2:30 PM48 °FBroken clouds.14 mph66%30.07 "Hg6 mi
2:00 PM48 °FPassing clouds.13 mph62%30.07 "Hg6 mi
1:30 PM48 °FScattered clouds.15 mph66%30.07 "HgN/A
1:00 PM48 °FPassing clouds.12 mph66%30.07 "HgN/A
12:30 PM46 °FPartly sunny.12 mph71%30.07 "HgN/A
12:00 PM45 °FPartly sunny.13 mph71%30.07 "Hg4 mi
11:30 AM46 °FPartly sunny.15 mph71%30.07 "Hg4 mi
11:00 AM46 °FPartly sunny.13 mph71%30.07 "Hg4 mi
10:30 AM46 °FFog.12 mph71%30.07 "Hg3 mi
10:00 AM45 °FPassing clouds.12 mph76%30.04 "Hg5 mi
9:30 AM45 °FPartly sunny.9 mph76%30.04 "Hg6 mi
9:00 AM43 °FMostly cloudy.7 mph81%30.04 "Hg4 mi
8:30 AM43 °FClear.8 mph81%30.04 "Hg4 mi
8:00 AM43 °FClear.6 mph81%30.01 "Hg4 mi
7:30 AM43 °FClear.7 mph81%30.01 "Hg4 mi
7:00 AM43 °FClear.10 mph87%30.01 "Hg4 mi
6:30 AM45 °FClear.8 mph87%30.01 "Hg4 mi
5:30 AM45 °FPartly cloudy.6 mph93%29.98 "Hg4 mi
5:00 AM45 °FFog.6 mph93%29.98 "Hg3 mi
4:30 AM45 °FFog.6 mph93%29.98 "Hg3 mi
4:00 AM45 °FFog.5 mph93%30.01 "Hg3 mi
3:30 AM45 °FFog.3 mph93%30.01 "Hg3 mi
3:00 AM45 °FFog.5 mph93%30.01 "Hg3 mi
2:30 AM45 °FFog.5 mph93%30.01 "Hg3 mi
2:00 AM45 °FFog.5 mph87%30.01 "Hg3 mi
Weather by CustomWeather, © 2015

See weather overviewHow to use our weather pages